Regional Weather Roundup
Issued by NWS Green Bay, WI

Home | Current Version | Previous Version | Text Only | Print | Product List | Glossary On
Versions: 1 2 3 4 5 6 7 8 9 10 11 12 13 14 15 16 17 18 19 20 21 22 23 24 25 26 27 28 29 30 31 32 33 34 35 36 37 38 39 40 41 42 43 44 45 46 47 48 49 50
000
ASUS43 KGRB 281210
RWRGRB

NORTH-CENTRAL AND NORTHEAST WISCONSIN REGIONAL WEATHER ROUNDUP
NATIONAL WEATHER SERVICE GREEN BAY WI
700 AM CDT SAT MAR 28 2015

WIZ005-009-010>012-018-019-281300-
NORTH CENTRAL WISCONSIN

CITY           SKY/WX    TMP DP  RH WIND       PRES   REMARKS
IRONWOOD       CLEAR      5   1  85 CALM      30.19R
MANITOWISH WTR CLEAR      4   1  88 CALM      30.19R
ARBOR VITAE    CLEAR      6   1  81 CALM      30.20R
EAGLE RIVER    CLEAR     -1  -6  80 CALM      30.20R
LAND O LAKES   CLEAR     -7 -12  81 CALM      30.20S
RHINELANDER    CLEAR      5   1  83 CALM      30.20R
PHILLIPS       CLEAR      9   6  87 CALM      30.19R
ANTIGO         CLEAR     11   5  77 SE5       30.22R WCI   3
TOMAHAWK       CLEAR      3   0  85 CALM      30.21R
MERRILL        CLEAR      8   5  89 CALM      30.22R
$$

WIZ013-073-281300-
NORTHEAST WISCONSIN

CITY           SKY/WX    TMP DP  RH WIND       PRES   REMARKS
IRON MOUNTAIN  CLEAR      1  -4  79 CALM      30.24R
MARINETTE      CLEAR      9   7  92 CALM      30.29R
OCONTO         CLEAR      8   5  90 CALM      30.30R
$$

WIZ017-030-035>037-045-281300-
CENTRAL WISCONSIN

CITY           SKY/WX    TMP DP  RH WIND       PRES   REMARKS
MEDFORD        CLEAR     13   9  83 CALM      30.20R
WAUSAU         CLEAR     13   8  81 E6        30.22R WCI   4
MOSINEE        CLEAR     12  10  92 CALM      30.24R
MARSHFIELD     CLEAR     16  10  77 CALM      30.23R
WISC RAPIDS    CLEAR     11   6  81 CALM      30.27R
STEVENS POINT  CLEAR      8   5  86 CALM      30.26R
WAUPACA        CLEAR     15  11  83 CALM      30.28R
SHAWANO        CLEAR     13  10  85 CALM      30.29R
CLINTONVILLE   CLEAR     14  10  85 CALM      30.28R
$$

WIZ038-039-048-051-281300-
FOX VALLEY

CITY           SKY/WX    TMP DP  RH WIND       PRES   REMARKS
NWS GREEN BAY  CLEAR     17  12  80 CALM      30.29R
APPLETON       CLEAR     18  10  73 VRB3      30.27R
OSHKOSH        CLEAR     16  12  84 CALM      30.28R
FOND DU LAC    CLEAR     12   8  84 CALM      30.28R
$$

WIZ022-050-052-281300-
EAST CENTRAL WISCONSIN

CITY           SKY/WX    TMP DP  RH WIND       PRES   REMARKS
STURGEON BAY   CLEAR     12   5  73 CALM      30.30S
MANITOWOC      CLEAR     16  12  84 N3        30.30R
SHEBOYGAN      CLEAR     16  11  80 CALM      30.28R
$$

LMZ563-521-522-541>543-281300-
LAKESHORE

STATION/POSITION TIME  TEMP    WIND        PRES    VSBY  WAVE
                       AIR SEA DIR/SP/G                  HT/PER
                 (UTC) (F)     (DEG/KT/KT) (MB)    (MI)  (FT/S)
SHEBOYGAN LKSHOR 1200   21     300/  6/  7 1027.1R
KEWAUNEE LKSHORE 1200   15      CALM  /  4 1024.8R
NORTHPORT PIER   1200   14     290/  2/  3 1025.7S
SISTER BAY LKSHO 1200   10        CALM       N/A
CHAMBERS ISLAND  1200    9        CALM     1025.7R
MENOMINEE LKSHOR 1200   14     320/  2     1026.3R
$$


USA.gov is the U.S. government's official web portal to all federal, state and local government web resources and services.